Probability
0 0 0 0 0 0 0 0 0 0 0 0 0 0 0 0 0 0 0 0 0 0 0 0 0 0 0 0 0 0 0 0 0 0 0 0 0 0 0 0 0 0 0 0
0 0 0 0 0 0 0 0 0 0 0 0 0 0 0 0 0 0 0 0 0 0 0 0 0 0 0 0 0 0 0 0 0 0 0 0 0 0 0 0 0 0 0 0
0 0 0 0 0 0 0 0 0 0 0 0 0 0 0 0 0 0 0 0 0 0 0 0 0 0 0 0 0 0 0 0 0 0 0 0 0 0 0 0 0 0 0 0
0 0 0 0 0 0 0 0 0 0 0 0 0 0 0 0 0 0 0 0 0 0 0 0 0 0 0 0 0 0 0 0 0 0 0 0 0 0 0 0 0 0 0 0
0 0 0 0 0 0 0 0 0 0 0 0 0 0 0 0 0 0 0 0 0 0 0 0 0 0 0 0 0 0 0 0 0 0 0 0 0 0 0 0 0 0 0 0
0 0 0 0 0 0 0 0 0 0 0 0 0 0 0 0 0 0 0 0 0 0 0 0 0 0 0 0 0 0 0 0 0 0 0 0 0 0 0 0 0 0 0 0
0 0 0 0 0 0 0 0 0 0 0 0 0 0 0 0 0 0 0 0 0 0 0 0 0 0 0 0 0 0 0 0 0 0 0 0 0 0 0 0 0 0 0 0
0 0 0 0 0 0 0 0 0 0 0 0 0 0 0 0 0 0 0 0 0 0 0 0 0 0 0 0 0 0 0 0 0 0 0 0 0 0 0 0 0 0 0 0
0 0 0 0 0 0 0 0 0 0 0 0 0 0 0 0 0 0 0 0 0 0 0 0 0 0 0 0 0 0 0 0 0 0 0 0 0 0 0 0 0 0 0 0
0 0 0 0 0 0 0 0 0 0 0 0 0 0 0 0 0 0 0 0 0 0 0 0 0 0 0 0 0 0 0 0 0 0 0 0 0 0 0 0 0 0 0 0
0 0 0 0 0 0 0 0 0 0 0 0 0 0 0 0 0 0 0 0 0 0 0 0 0 0 0 0 0 0 0 0 0 0 0 0 0 0 0 0 0 0 0 0
0 0 0 0 0 0 0 0 0 0 0 0 0 0 0 0 0 0 0 0 0 0 0 0 0 0 0 0 0 0 0 0 0 0 0 0 0 0 0 0 0 0 0 0
0 0 0 0 0 0 0 0 0 0 0 0 0 0 0 0 0 0 0 0 0 0 0 0 0 0 0 0 0 0 0 0 0 0 0 0 0 0 0 0 0 0 0 0
0 0 0 0 0 0 0 0 0 0 0 0 0 0 0 0 0 0 0 0 0 0 0 0 0 0 0 0 0 0 0 0 0 0 0 0 0 0 0 0 0 0 0 0
0 0 0 0 0 0 0 0 0 0 0 0 0 0 0 0 0 0 0 0 0 0 0 0 0 0 0 0 0 0 0 0 0 0 0 0 0 0 0 0 0 0 0 0
0 0 0 0 0 0 0 0 0 0 0 0 0 0 0 0 0 0 0 0 0 0 0 0 0 0 0 0 0 0 0 0 0 0 0 0 0 0 0 0 0 0 0 0
0 0 0 0 0 0 0 0 0 0 0 0 0 0 0 0 0 0 0 0 0 0 0 0 0 0 0 0 0 0 0 0 0 0 0 0 0 0 0 0 0 0 0 0
0 0 0 0 0 0 0 0 0 0 0 0 0 0 0 0 0 0 0 0 0 0 0 0 0 0 0 0 0 0 0 0 0 0 0 0 0 0 0 0 0 0 0 0
0 0 0 0 0 0 0 0 0 0 0 0 0 0 0 0 0 0 0 0 0 0 0 0 0 0 0 0 0 0 0 0 0 0 0 0 0 0 0 0 0 0 0 0
0 0 0 0 0 0 0 0 0 0 0 0 0 0 0 0 0 0 0 0 0 0 0 0 0 0 0 0 0 0 0 0 0 0 0 0 0 0 0 0 0 0 0 0
0 0 0 0 0 0 0 0 0 0 0 0 0 0 0 0 0 0 0 0 0 0 0 0 0 0 0 0 0 0 0 0 0 0 0 0 0 0 0 0 0 0 0 0
0 0 0 0 0 0 0 0 0 0 0 0 0 0 0 0 0 0 0 0 0 0 0 0 0 0 0 0 0 0 0 0 0 0 0 0 0 0 0 0 0 0 0 0
0 0 0 0 0 0 0 0 0 0 0 0 0 0 0 0 0 0 0 0 0 0 0 0 0 0 0 0 0 0 0 0 0 0 0 0 0 0 0 0 0 0 0 0
0 0 0 0 0 0 0 0 0 0 0 0 0 0 0 0 0 0 0 0 0 0 0 0 0 0 0 0 0 0 0 0 0 0 0 0 0 0 0 0 0 0 0 0
0 0 0 0 0 0 0 0 0 0 0 0 0 0 0 0 0 0 0 0 0 0 0 0 0 0 0 0 0 0 0 0 0 0 0 0 0 0 0 0 0 0 0 0
0 0 0 0 0 0 0 0 0 0 0 0 0 0 0 0 0 0 0 0 0 0 0 0 0 0 0 0 0 0 0 0 0 0 0 0 0 0 0 0 0 0 0 0
0 0 0 0 0 0 0 0 0 0 0 0 0 0 0 0 0 0 0 0 0 0 0 0 0 0 0 0 0 0 0 0 0 0 0 0 0 0 0 0 0 0 0 0
Wind_Speed
6 5 3 5 6 5 7 8 9 8 8 11 9 9 8 6 5 5 6 6 7 7 7 6 6 6 6 6 6 5 5 6 7 6 5 5 6 6 6 7 8 8 8 9
3 2 3 5 6 4 5 5 6 4 8 8 5 3 4 5 6 7 8 9 8 8 8 7 7 6 6 6 6 4 5 6 6 5 5 5 6 6 7 7 8 8 8 9
4 4 3 5 4 3 4 5 7 8 9 3 5 8 10 9 8 10 10 10 9 9 9 8 7 6 7 7 5 4 5 6 5 5 5 6 6 7 7 8 8 8 8 9
2 1 3 10 4 5 5 5 7 6 6 7 9 7 6 7 9 11 10 10 10 9 8 7 6 5 5 5 4 5 5 6 5 5 6 6 6 8 8 7 8 8 9 9
4 3 6 10 5 5 5 6 6 8 7 3 2 2 5 8 10 12 12 10 10 9 7 6 6 5 4 5 5 5 6 6 6 5 6 7 8 8 8 7 8 8 8 9
4 4 6 11 5 3 4 6 7 8 8 6 7 3 9 9 11 12 10 8 8 6 5 6 6 4 4 5 5 6 7 6 5 5 6 8 9 9 8 7 8 8 9 9
4 4 9 9 2 5 3 10 6 10 10 11 12 13 9 5 8 11 11 9 7 6 6 7 5 5 6 6 7 7 6 5 5 6 7 8 8 8 8 8 8 8 9 9
4 2 8 4 6 8 12 6 4 9 11 13 15 13 9 7 8 9 9 9 8 7 7 6 5 6 6 8 7 5 5 5 6 6 7 7 7 8 8 7 8 8 8 9
9 9 8 4 8 9 4 5 7 8 11 14 14 14 13 11 10 9 10 9 8 8 7 6 6 7 8 8 5 5 5 6 6 7 7 7 7 8 7 6 6 7 7 7
5 10 9 8 8 8 7 10 11 9 9 10 14 15 13 11 10 9 10 9 7 8 8 8 7 8 9 7 5 5 6 6 6 6 7 7 6 6 6 6 6 7 7 7
6 9 8 8 6 7 8 8 9 8 7 10 12 14 12 11 10 10 9 8 8 9 10 9 7 7 8 6 5 5 6 6 6 6 7 7 7 6 7 8 8 8 8 8
8 8 4 6 9 10 8 8 7 6 6 5 7 11 9 9 8 7 7 7 7 8 9 8 7 7 7 6 6 6 5 5 5 5 5 6 7 8 8 11 13 14 15 13
6 4 3 5 9 11 8 9 9 8 7 7 6 5 6 5 4 3 5 7 9 9 9 8 7 7 7 6 6 7 6 6 5 5 6 6 6 7 9 9 9 11 11 11
6 4 8 9 8 10 10 10 11 13 13 10 9 7 5 4 2 2 5 7 8 7 7 7 7 8 7 6 7 7 6 7 7 5 6 6 6 6 6 8 9 8 8 9
12 9 5 4 8 11 11 13 16 16 15 15 12 10 9 7 5 4 4 4 4 6 7 7 8 9 6 7 7 7 6 5 5 5 6 6 6 6 6 7 7 8 8 8
6 8 9 11 12 12 13 14 13 13 12 12 13 12 10 7 5 5 4 4 5 9 10 9 10 9 6 7 7 6 5 9 8 5 5 6 5 6 6 6 7 7 7 7
11 12 11 11 10 10 9 8 8 8 8 9 10 10 9 8 7 7 7 6 7 9 8 8 9 6 7 8 7 5 5 5 8 6 5 5 5 6 6 6 6 7 7 7
5 4 4 4 6 8 9 9 8 9 8 8 8 8 8 8 8 10 9 7 7 8 9 8 7 6 7 8 7 5 4 4 4 5 5 5 5 6 6 6 7 8 7 7
5 5 6 6 6 6 7 7 8 8 8 7 7 7 7 8 8 9 9 7 8 10 9 7 9 9 8 9 8 4 4 4 4 4 4 5 6 5 5 5 6 6 7 7
6 6 7 7 8 7 7 8 8 7 7 6 6 7 8 9 9 9 9 8 8 8 7 5 6 7 7 7 8 4 4 4 4 4 4 4 5 5 5 6 6 6 6 6
6 7 8 8 9 9 8 7 7 7 8 7 6 7 8 9 9 8 7 9 10 8 7 7 5 5 5 6 7 4 4 4 3 3 3 4 4 5 5 6 6 6 6 6
5 6 8 8 8 9 8 7 6 7 7 7 7 7 8 9 10 9 8 7 9 10 7 4 3 5 6 6 4 4 4 3 2 2 2 3 4 5 5 6 6 6 6 6
6 6 7 8 7 8 9 7 6 6 6 7 8 8 8 8 7 7 9 8 8 10 7 4 3 5 7 4 3 3 3 2 1 2 2 3 4 4 5 6 5 6 6 6
7 7 7 7 6 6 7 8 7 6 7 7 7 7 7 7 7 6 7 10 10 8 4 2 1 3 4 2 2 2 2 1 0 1 2 3 4 4 5 5 5 5 6 7
7 7 7 7 7 6 7 8 7 7 7 6 8 8 6 5 6 7 7 8 8 6 3 2 2 3 3 3 3 2 2 2 2 2 2 3 4 5 5 5 5 5 6 6
7 7 7 7 7 7 6 5 5 6 6 6 7 7 7 6 6 6 5 5 6 4 2 2 2 3 3 4 4 4 3 3 3 3 3 4 4 5 5 5 7 5 5 6
7 6 5 6 7 6 5 5 5 6 6 6 7 7 7 6 6 6 6 4 3 3 2 3 4 4 5 5 5 4 4 4 4 4 4 4 4 5 5 6 5 5 5 6
Wind_Direction
231 243 248 255 261 198 191 192 190 228 229 246 230 220 222 218 210 214 230 233 232 235 241 246 252 257 258 264 268 263 261 262 261 264 263 263 266 268 270 271 274 273 277 277
274 265 264 263 268 228 205 195 212 241 258 249 238 205 228 221 207 220 233 235 235 235 237 240 242 249 256 261 266 261 258 262 267 269 267 265 266 270 273 274 274 275 275 276
257 305 358 298 257 217 221 207 183 207 239 228 196 210 221 218 210 219 228 230 230 230 228 231 233 235 244 252 264 264 261 266 269 268 269 269 273 277 276 276 276 278 276 274
177 47 250 249 245 217 226 239 209 225 242 214 213 222 232 212 206 221 226 227 229 228 228 230 229 231 241 252 258 261 265 268 269 270 273 276 277 277 277 276 276 277 278 277
134 185 272 293 274 184 186 260 220 219 238 211 113 40 291 230 210 219 220 218 221 219 217 220 225 228 234 252 257 262 263 263 264 267 274 280 280 279 278 277 277 275 275 276
137 168 232 253 265 164 116 277 244 200 210 171 131 181 255 236 210 222 224 218 218 213 204 217 226 211 219 244 253 256 256 256 260 264 269 275 277 279 277 274 276 281 280 276
172 211 256 255 234 127 165 243 239 197 197 173 187 210 227 224 210 216 217 215 207 197 204 217 211 191 221 240 246 247 249 255 261 264 269 273 275 274 278 279 281 281 282 281
148 191 261 251 147 185 219 237 229 208 200 194 216 232 240 242 231 219 215 210 196 196 213 216 196 194 225 241 245 245 248 257 265 270 274 279 277 281 280 278 282 284 284 287
187 217 243 239 220 241 239 245 242 220 216 207 220 234 237 239 235 223 213 207 194 195 210 217 205 198 223 240 239 238 248 260 270 278 277 276 276 280 286 280 277 281 282 285
242 265 265 272 263 263 239 235 248 236 226 206 217 232 236 237 232 220 212 202 189 187 206 222 215 210 222 232 222 225 246 262 273 282 287 285 277 272 276 278 279 281 282 282
255 273 297 301 303 304 299 285 275 266 240 221 222 236 235 235 230 218 207 193 183 193 209 222 217 221 225 220 209 225 246 262 275 277 281 288 285 273 271 266 257 264 276 275
240 254 250 289 322 331 328 324 319 310 303 277 232 243 248 244 239 218 203 189 190 201 213 221 215 225 227 212 204 219 246 261 267 275 281 283 292 298 275 262 268 261 255 255
266 328 21 339 354 357 4 6 12 19 4 348 333 294 279 272 263 213 199 194 202 209 215 216 214 227 228 209 202 215 235 254 265 272 279 286 291 298 307 306 291 279 273 270
359 56 45 17 1 4 19 22 33 34 26 18 8 3 354 339 325 234 222 218 212 211 214 211 216 231 225 203 203 218 235 254 262 266 274 279 283 286 289 297 307 308 302 293
33 53 68 22 21 22 21 25 30 24 16 14 12 12 9 358 329 291 265 242 219 220 225 216 222 233 212 195 204 217 230 247 258 266 270 274 279 284 285 287 289 294 301 303
29 43 38 33 25 18 19 22 21 11 7 6 5 1 357 347 322 302 283 242 226 234 231 220 228 230 198 193 204 217 231 252 263 268 276 281 284 288 290 292 294 296 297 300
44 30 17 14 8 4 7 5 0 351 353 356 349 344 342 341 334 318 298 272 251 253 247 232 234 221 195 194 198 213 227 251 268 273 271 278 285 289 290 291 293 295 294 294
58 40 13 355 346 344 347 348 344 341 339 330 330 336 339 337 323 311 306 300 285 275 261 243 233 214 203 197 195 205 219 236 250 262 271 277 285 288 288 291 295 297 301 305
26 14 357 349 339 331 326 326 325 321 320 323 327 324 317 312 307 306 307 301 288 280 274 244 222 208 205 202 192 196 212 234 250 262 272 284 290 292 294 296 298 300 303 307
7 355 346 339 337 330 319 317 318 316 317 319 321 323 323 318 316 315 312 296 277 270 273 254 225 212 204 198 189 186 203 227 245 261 276 286 295 299 302 304 305 307 308 308
344 338 336 332 326 320 314 312 312 311 314 318 319 315 311 311 315 315 315 310 304 295 286 256 227 207 193 184 182 183 197 216 235 256 277 290 299 304 307 310 312 312 313 315
320 319 319 319 320 317 314 312 308 306 312 318 319 318 319 320 322 319 308 296 302 305 299 271 233 198 182 172 172 182 194 207 227 254 279 293 299 305 309 315 315 316 317 319
301 300 303 304 304 301 304 306 308 308 306 307 308 308 306 302 303 306 310 311 313 309 303 282 231 184 165 157 165 174 178 188 228 271 290 299 302 305 309 314 317 318 322 325
292 293 292 293 300 305 305 302 305 300 294 294 293 293 295 301 304 299 298 308 316 314 312 303 214 152 133 120 131 135 133 124 339 315 313 312 311 311 311 316 320 323 324 327
285 286 288 296 299 292 285 290 298 298 299 299 300 300 297 283 285 300 310 317 324 327 338 14 72 107 109 106 106 98 82 55 17 344 329 324 320 318 317 321 325 324 325 328
278 277 277 273 270 271 275 279 279 283 286 289 293 296 300 300 300 304 310 317 327 335 353 33 65 80 82 87 85 76 60 35 14 358 342 333 326 322 322 325 327 326 325 327
277 275 276 283 283 274 271 269 270 275 276 276 283 290 297 302 305 312 317 322 340 360 34 61 70 73 74 72 69 60 48 31 14 359 347 339 331 326 325 325 324 324 325 326